Valentine, NE

3:11 AM CST on December 10, 2016 (GMT -0600)
Miller Field

Weather History for KVTN - March, 2014

Change the Weather History Date:

Wednesday, March 19, 2014

  Actual Average Record
Temperature  
Mean Temperature 36 °F 37 °F  
Max Temperature 52 °F 50 °F 85 °F (2004)
Min Temperature 20 °F 24 °F -11 °F (1965)
Degree Days  
Heating Degree Days 29 28  
Month to date heating degree days 600 583  
Since 1 July heating degree days 6078 5819  
Cooling Degree Days 0 0  
Month to date cooling degree days 0 0  
Year to date cooling degree days 0 0  
Moisture  
Dew Point 21 °F    
Average Humidity 56    
Maximum Humidity 88    
Minimum Humidity 24    
Precipitation  
Precipitation 0.00 in 0.04 in 0.64 in (1942)
Month to date precipitation 0.33 0.57  
Year to date precipitation 0.99 1.31  
Snow  
Snow 0.00 in 0.20 in 10.00 in (2006)
Month to date snowfall 3.8 4.2  
Since 1 July snowfall 30.3 26.3  
Snow Depth 0.00 in    
Sea Level Pressure  
Sea Level Pressure 30.07 in    
Wind  
Wind Speed 9 mph (WNW)    
Max Wind Speed 25 mph    
Max Gust Speed 32 mph    
Visibility 9 miles    
Events      
T = Trace of Precipitation, MM = Missing Value Source: NWS Daily Summary

Daily Weather History Graph

Daily Weather History Graph

Search for Another Location

Airport or City:

Trip Planner

Search our weather history database for the weather conditions in past years. The results will help you decide how hot, cold, wet, or windy it might be!

Date:

Astronomy

Mar. 19, 2014 Rise Set
Actual Time 7:47 AM CDT 7:53 PM CDT
Civil Twilight 7:18 AM CDT 8:21 PM CDT
Nautical Twilight 6:45 AM CDT 8:54 PM CDT
Astronomical Twilight 6:12 AM CDT 9:28 PM CDT
Moon 11:19 PM CDT (3/19) 9:09 AM CDT (3/19)
Length of Visible Light 13h 02m
Length of Day
12h 06m
Waning Gibbous, 91% of the Moon is Illuminated
Mar 19
Waning Gibbous
Mar 23
Last Quarter
Mar 30
New
Apr 7
First Quarter
Apr 15
Full

Hourly Weather History & Observations

Time (CDT) Temp. Windchill Dew Point Humidity Pressure Visibility Wind Dir Wind Speed Gust Speed Precip Events Conditions
12:52 AM 24.1 °F 18.2 °F 21.9 °F 91% 30.09 in 4.0 mi West 4.6 mph - N/A   Clear
1:52 AM 25.0 °F 18.1 °F 21.9 °F 88% 30.09 in 7.0 mi WNW 5.8 mph - N/A   Clear
2:52 AM 24.1 °F 17.0 °F 21.0 °F 88% 30.10 in 8.0 mi WNW 5.8 mph - N/A   Clear
3:52 AM 24.1 °F 14.4 °F 21.0 °F 88% 30.08 in 10.0 mi WNW 9.2 mph - N/A   Clear
4:52 AM 25.0 °F 15.5 °F 21.9 °F 88% 30.08 in 10.0 mi WNW 9.2 mph - N/A   Clear
5:52 AM 26.1 °F 16.8 °F 23.0 °F 88% 30.09 in 10.0 mi WNW 9.2 mph - N/A   Clear
6:52 AM 24.1 °F 16.0 °F 21.0 °F 88% 30.11 in 10.0 mi West 6.9 mph - N/A   Clear
7:52 AM 21.0 °F 13.4 °F 18.0 °F 88% 30.12 in 10.0 mi WSW 5.8 mph - N/A   Clear
8:52 AM 28.0 °F 21.7 °F 24.1 °F 85% 30.12 in 10.0 mi West 5.8 mph - N/A   Clear
9:52 AM 34.0 °F 26.0 °F 28.0 °F 79% 30.11 in 10.0 mi West 10.4 mph - N/A   Clear
10:52 AM 39.9 °F 33.4 °F 28.9 °F 65% 30.11 in 10.0 mi West 10.4 mph - N/A   Partly Cloudy
11:52 AM 45.0 °F 38.9 °F 27.0 °F 49% 30.10 in 10.0 mi West 12.7 mph 17.3 mph N/A   Clear
12:52 PM 48.9 °F - 25.0 °F 39% 30.08 in 10.0 mi West 16.1 mph 19.6 mph N/A   Scattered Clouds
1:52 PM 46.0 °F 39.9 °F 21.0 °F 37% 30.07 in 10.0 mi WNW 13.8 mph - N/A   Overcast
2:52 PM 50.0 °F - 21.0 °F 32% 30.05 in 10.0 mi West 16.1 mph 24.2 mph N/A   Partly Cloudy
3:52 PM 50.0 °F - 16.0 °F 26% 30.04 in 10.0 mi NW 20.7 mph 27.6 mph N/A   Scattered Clouds
4:52 PM 51.1 °F - 15.1 °F 24% 30.03 in 10.0 mi WNW 17.3 mph 27.6 mph N/A   Clear
5:52 PM 51.1 °F - 16.0 °F 25% 30.03 in 10.0 mi WNW 15.0 mph 24.2 mph N/A   Clear
6:52 PM 50.0 °F - 17.1 °F 27% 30.04 in 10.0 mi NNW 10.4 mph - N/A   Clear
7:52 PM 45.0 °F 41.8 °F 18.0 °F 34% 30.05 in 10.0 mi North 5.8 mph - N/A   Clear
8:52 PM 41.0 °F - 18.0 °F 40% 30.05 in 10.0 mi Calm Calm - N/A   Clear
9:52 PM 30.0 °F 25.2 °F 19.0 °F 64% 30.05 in 10.0 mi South 4.6 mph - N/A   Clear
10:52 PM 32.0 °F - 19.9 °F 61% 30.04 in 10.0 mi Calm Calm - N/A   Clear
11:52 PM 34.0 °F 29.8 °F 21.0 °F 59% 30.02 in 10.0 mi SE 4.6 mph - N/A   Clear